Annapolis Naval Academy, MD

1:44 AM EDT on August 19, 2017 (GMT -0400)
Annapolis Naval Academy

Weather History for KNAK - May, 2014

Change the Weather History Date:

Wednesday, May 7, 2014

  Actual Average (KBWI) Record (KBWI)
Temperature  
Mean Temperature 58 °F -  
Max Temperature 62 °F 71 °F 96 °F (1930)
Min Temperature 54 °F 48 °F 33 °F (1970)
Degree Days  
Heating Degree Days 8    
Growing Degree Days 8 (Base 50)    
Moisture  
Dew Point 46 °F    
Average Humidity 66    
Maximum Humidity 90    
Minimum Humidity 46    
Precipitation  
Precipitation 0.13 in - - ()
Sea Level Pressure  
Sea Level Pressure 30.18 in    
Wind  
Wind Speed 6 mph (East)    
Max Wind Speed 14 mph    
Max Gust Speed -    
Visibility 10 miles    
Events Rain    
Averages and records for this station are not official NWS values.
T = Trace of Precipitation, MM = Missing Value Source: NWS Daily Summary

Daily Weather History Graph

Daily Weather History Graph

Search for Another Location

Airport or City:

Trip Planner

Search our weather history database for the weather conditions in past years. The results will help you decide how hot, cold, wet, or windy it might be!

Date:

Astronomy

May. 07, 2014 Rise Set
Actual Time 6:01 AM EDT 8:04 PM EDT
Civil Twilight 5:31 AM EDT 8:33 PM EDT
Nautical Twilight 4:56 AM EDT 9:09 PM EDT
Astronomical Twilight 4:17 AM EDT 9:48 PM EDT
Moon 1:10 PM EDT (5/7) 1:55 AM EDT (5/7)
Length of Visible Light 15h 02m
Length of Day
14h 03m
First Quarter, 55% of the Moon is Illuminated
May 7
First Quarter
May 14
Full
May 21
Last Quarter
May 28
New
Jun 5
First Quarter

Hourly Weather History & Observations

Time (EDT) Temp. Dew Point Humidity Pressure Visibility Wind Dir Wind Speed Gust Speed Precip Events Conditions
12:54 AM 54.0 °F 51.1 °F 90% 30.08 in 10.0 mi Calm Calm - N/A   Clear
1:54 AM 59.0 °F 48.9 °F 69% 30.10 in 10.0 mi NE 5.8 mph - N/A   Clear
2:54 AM 59.0 °F 39.9 °F 49% 30.10 in 10.0 mi NE 5.8 mph - N/A   Clear
3:54 AM 57.9 °F 42.1 °F 56% 30.13 in 10.0 mi NE 4.6 mph - N/A   Clear
4:54 AM 57.0 °F 39.0 °F 51% 30.14 in 10.0 mi NE 4.6 mph - N/A   Clear
5:54 AM 55.9 °F 37.9 °F 51% 30.16 in 10.0 mi NE 5.8 mph - N/A   Clear
6:54 AM 55.9 °F 39.0 °F 53% 30.18 in 10.0 mi ENE 8.1 mph - N/A   Clear
7:54 AM 57.0 °F 37.9 °F 49% 30.20 in 10.0 mi East 8.1 mph - N/A   Clear
8:54 AM 57.9 °F 37.9 °F 47% 30.22 in 10.0 mi ENE 9.2 mph - N/A   Clear
9:54 AM 60.1 °F 39.9 °F 47% 30.22 in 10.0 mi East 8.1 mph - N/A   Scattered Clouds
10:54 AM 61.0 °F 39.9 °F 46% 30.23 in 10.0 mi ESE 6.9 mph - N/A   Overcast
11:54 AM 60.1 °F 41.0 °F 49% 30.24 in 10.0 mi Calm Calm - N/A   Overcast
12:54 PM 55.0 °F 46.9 °F 74% 30.27 in 3.0 mi Calm Calm - 0.07 in Rain Light Rain
1:54 PM 57.0 °F 50.0 °F 77% 30.21 in 10.0 mi SE 8.1 mph - 0.04 in Rain Light Rain
2:54 PM 57.0 °F 52.0 °F 83% 30.21 in 10.0 mi ENE 3.5 mph - 0.02 in   Overcast
3:54 PM 57.9 °F 51.1 °F 78% 30.19 in 10.0 mi East 6.9 mph - N/A   Overcast
4:54 PM 59.0 °F 52.0 °F 78% 30.19 in 10.0 mi ESE 9.2 mph - N/A   Clear
5:54 PM 60.1 °F 52.0 °F 75% 30.17 in 10.0 mi SE 8.1 mph - N/A   Clear
6:54 PM 60.1 °F 52.0 °F 75% 30.17 in 10.0 mi ESE 9.2 mph - N/A   Clear
7:54 PM 59.0 °F 52.0 °F 78% 30.18 in 10.0 mi ESE 10.4 mph - N/A   Clear
8:54 PM 59.0 °F 52.0 °F 78% 30.20 in 10.0 mi East 6.9 mph - N/A   Clear
9:54 PM 59.0 °F 53.1 °F 81% 30.19 in 10.0 mi ESE 12.7 mph - N/A   Clear
10:54 PM 59.0 °F 53.1 °F 81% 30.18 in 10.0 mi SE 13.8 mph - N/A   Mostly Cloudy
11:54 PM 57.9 °F 52.0 °F 81% 30.16 in 10.0 mi SE 11.5 mph - N/A   Mostly Cloudy